Find Xingwang Jishu Shiyan W.

NORAD ID: 68833 Int'l Des: 2026-091 Owner: ZXW Country: CN Constellation: xingwang operational
LEOCIRCULAR

現在のビュー

3D地球を読み込み中...

About Xingwang Jishu Shiyan W.

Xingwang Jishu Shiyan W. (NORAD 68833) is a xingwang constellation satellite launched Apr 24, 2026 by ZXW of CN. It operates in LEO, CIRCULAR orbit with a mass of 300.00 kg.

Xingwang Jishu Shiyan W.について

説明を読み込み中...

次回通過

Passes for default location (London). Set your location on the main map for personalized predictions.

高度履歴

Loading altitude history...

軌道要素

1 68833U 26091C 26159.51802139 .00003018 00000-0 15620-3 0 9997
2 68833 54.9980 59.5863 0012232 43.0918 317.1056 15.19251217 6885
Epoch: Jun 8, 2026 • Age: 23 hours

現在のステータス

高度 510.7 km
速度 7.62 km/s
衛星直下点 49.06°N, 118.75°E
打ち上げ日 Apr 24, 2026
運用期間 0.1 years
タイプ internet

技術仕様

分類 Payload
質量 300.00 kg
乾燥質量 300.00 kg
総質量 300.00 kg
長さ 2.50 m
直径 0.80 m
スパン 2.50 m
形状 Box + 2 Pan
製造者 UNKCN
フェーズステータス In Orbit
所有者/国 ZXW/CN

Most Searched